Flag for Poland Weather past 2 weeks in Poznan, Poland

Now
63 °F

Fog.


Feels Like: 63 °F
Forecast: 51 / 58 °F
Wind: 2 mph from West

Location: Poznan Airport

Current Time: Sep 21, 2014 at 8:31:01 AM

Latest Report: Sep 21, 2014 at 8:00 AM


Visibility: 1 mi

Pressure: 29.80 "Hg

Humidity: 94%

Dew point: 61 °F

Location of PoznanLocation

Historic Weather in Poznan — Graph

°F

Poznan temperature yesterday

Maximum temperature yesterday: 72 °F (at 1:00 PM)
Minimum temperature yesterday: 50 °F (at 5:00 AM)
Average temperature yesterday: 60 °F

Past Weeks' High & Low Weather Summary

 TemperatureHumidityPressure
High81 °F (Sep 14, 2:30 PM)100% (Sep 7, 4:30 AM)30.18 "Hg (Sep 7, 4:30 AM)
Low50 °F (Sep 17, 6:00 AM)21% (Sep 15, 4:30 PM)29.83 "Hg (Sep 21, 3:30 AM)
Average64 °F75%30.03 "Hg
* Reported Sep 6 7:00 AM — Sep 21 7:30 AM, Poznan, Weather by CustomWeather, © 2014

Note: Actual official high and low records may vary slightly from our data, if they occured in-between our weather recording intervals... More about our weather records

Advertising

Poznan weather history for previous 24 hours

 ConditionsComfort  
Time TempWeatherWind HumidityBarometerVisibility
7:30 AM
Sep 21
63 °FFog.2 mph94%29.83 "Hg1 mi
7:00 AM61 °FFog.1 mph100%29.83 "Hg1 mi
6:30 AM61 °FFog.2 mph100%29.83 "Hg1 mi
6:00 AM61 °FFog.2 mph100%29.83 "Hg1 mi
5:30 AM61 °FFog.1 mph94%29.83 "Hg1 mi
5:00 AM61 °FFog.No wind100%29.83 "Hg1 mi
4:30 AM61 °FSprinkles. Fog.1 mph100%29.83 "Hg1 mi
4:00 AM63 °FFog.1 mph94%29.83 "Hg1 mi
3:30 AM63 °FSprinkles. Fog.2 mph94%29.83 "Hg1 mi
3:00 AM61 °FSprinkles. Fog.3 mph100%29.86 "Hg1 mi
2:30 AM61 °FSprinkles. Fog.1 mph100%29.86 "Hg1 mi
2:00 AM61 °FSprinkles. Fog.2 mph94%29.86 "Hg1 mi
1:30 AM63 °FSprinkles. Fog.1 mph94%29.86 "Hg2 mi
1:00 AM63 °FSprinkles. Fog.1 mph94%29.86 "Hg3 mi
12:30 AM63 °FSprinkles. Fog.2 mph94%29.86 "Hg3 mi
12:00 AM63 °FSprinkles. Passing clouds.6 mph94%29.89 "Hg5 mi
11:30 PM
Sep 20
63 °FSprinkles. Passing clouds.2 mph94%29.89 "Hg5 mi
11:00 PM61 °FClear.1 mph94%29.86 "Hg6 mi
10:30 PM61 °FClear.1 mph94%29.89 "Hg4 mi
10:00 PM61 °FClear.2 mph94%29.89 "Hg4 mi
9:30 PM59 °FFog.No wind94%29.89 "Hg4 mi
9:00 PM61 °FClear.No wind94%29.89 "Hg10 mi
8:30 PM61 °FClear.No wind94%29.89 "Hg10 mi
8:00 PM63 °FClear.1 mph88%29.89 "Hg10 mi
3:30 PM72 °FScattered clouds.1 mph65%29.89 "HgN/A
3:00 PM72 °FScattered clouds.2 mph65%29.92 "HgN/A
2:30 PM72 °FScattered clouds.2 mph65%29.92 "HgN/A
2:00 PM72 °FScattered clouds.3 mph69%29.92 "HgN/A
1:30 PM72 °FScattered clouds.1 mph69%29.92 "HgN/A
1:00 PM72 °FPassing clouds.2 mph69%29.92 "HgN/A
12:30 PM70 °FPassing clouds.3 mph88%29.92 "Hg5 mi
12:00 PM68 °FPassing clouds.3 mph78%29.92 "Hg5 mi
11:30 AM66 °FPassing clouds.5 mph83%29.92 "Hg4 mi
11:00 AM64 °FFog.3 mph94%29.95 "Hg2 mi
10:30 AM61 °FFog.2 mph100%29.95 "Hg2 mi
10:00 AM59 °FFog.1 mph100%29.95 "Hg1 mi
9:30 AM57 °FFog.3 mph100%29.95 "Hg1 mi
9:00 AM57 °FFog.2 mph94%29.95 "Hg1 mi
8:30 AM55 °FFog.2 mph94%29.95 "Hg0 mi
8:00 AM54 °FFog.1 mph94%29.95 "Hg0 mi
Weather by CustomWeather, © 2014

See weather overviewHow to use our weather pages